STARLINK-34114, 63905

Orbit data source: Space-Track

STARLINK-34114, 63905 is a payload satellite owned by SpaceX/Seattle (US) in LEO that was launched on Sat, 10 May 2025 UTC via an FALCON 9 launch vehicle from the Air Force Eastern Test Range (AFETR). Payload-class satellites include a variety of spacecraft equipped with specific instruments for various scientific and technological missions. These include communications satellites like Starlink; space stations such as the ISS; scientific satellites like the Hubble; Earth observation satellites from companies like Planet Labs, Umbra, and HawkEye 360; GPS; miniature CubeSats for education and research; and military/defense satellites.

Loading next visibility...
Identifier
63905, 2025-095R
Orbit
LEO
Country
Flag of USUS
Related business
Manufacturer
SpaceX/Seattle
Mission
Operational Commercial Communications
Bus & Motor
STARLINK V2MO, Unknown motor
Mass
575 kg wet, ~530 kg dry
Launch date (UTC)
2025-05-10 (1 year ago)
Launch vehicle
FALCON 9
Launch site
Air Force Eastern Test Range (AFETR)
Object type
Payload
Rocket body
Debris
Shape & HBR
Box + 2 Pan, 17.7 m
Radar Cross Section
36.964 m², Large (>1 m²)

Expand to show TLE details & history
Last TLE update: 10 hours ago

TLE from 10 hours ago
0 STARLINK-34114
1 63905U 25095R   26171.47775572  .00021913  00000-0  80301-3 0  9996
2 63905  42.9965 316.0926 0001944 272.6856  87.3773 15.27596961 63499
Epoch: 2026-06-20T11:27Z
TLE epoch observation values (Epoch: 2026-06-20T11:27:58.094Z)
Latitude
-0.00001°
Longitude
-124.59128°
Altitude
482.713 km
Speed
7.626 km/s
True Right ascension
21h 04m 22s
True Declination
0° 00' 00"
Sunlit
Object was in full shadow at epoch
Visualization orbit readout
Latitude
Unknown
Longitude
Unknown
Altitude
Unknown
Speed
Unknown
Apparent Right ascension
Unknown
Apparent Declination
Unknown
Sunlit
N/A
Visualization observer readout
Local Sidereal Time
08:33:16
Azimuth
Unknown
Elevation
Unknown
Doppler factor
Unknown
Orbital elements
Apogee altitude
486.278 km
Perigee altitude
483.61 km
Semi-major axis
6,863.081 km
Eccentricity
0.00019
Inclination
42.9965°
RAAN
316.0926°
Arg. of periapsis
272.6856°
True anomaly
87.39955°
Mean anomaly
87.3773°
Eccentric anomaly
87.38843°
Mean motion
3.81737 °/min
Orbital period
94.31 mins
BSTAR
0.00080301
Loading maneuver chart data...
Computing Atmospheric mass density...
Loading historical data...
Loading historical data...
Loading historical data...
Loading historical data...
Loading historical data...
Loading historical data...
Loading historical data...

Documentation

Showing up to 5 results
|